Regional Weather Roundup
Issued by NWS Jackson, KY

Home | Current Version | Previous Version | Graphics & Text | Print | Product List | Glossary On
Versions: 1 2 3 4 5 6 7 8 9 10 11 12 13 14 15 16 17 18 19 20 21 22 23 24 25 26 27 28 29 30 31 32 33 34 35 36 37 38 39 40 41 42 43 44 45 46 47 48 49 50
000
ASUS43 KJKL 242219
RWRJKL

EAST KENTUCKY HOURLY WEATHER ROUNDUP
NATIONAL WEATHER SERVICE JACKSON KY
600 PM EDT THU JUL 24 2014

NOTE: "FAIR" INDICATES FEW OR NO CLOUDS BELOW 12,000 FEET WITH
NO SIGNIFICANT WEATHER AND/OR OBSTRUCTIONS TO VISIBILITY.

* THESE REPORTS ARE NOT UNDER NWS QUALITY CONTROL AND MAY NOT
  REPORT WEATHER SUCH AS PRECIPITATION AND FOG.

KYZ079-080-083-085-087-088-110-112-115-119-120-242300
...EASTERN KENTUCKY...

CITY           SKY/WX    TMP DP  RH WIND       PRES   REMARKS
JACKSON        CLOUDY    67  61  81 VRB3      30.05R
LONDON         CLOUDY    71  61  70 NE7       30.05R
SOMERSET*      CLOUDY    73  61  64 NE6       30.04S
MONTICELLO*    MOSUNNY   75  64  68 N9        30.04S
MIDDLESBORO*   CLOUDY    70  65  84 N8        30.02R
HARLAN APT*    CLOUDY    68  63  83 MISG      30.03S
HAZARD APT*    CLOUDY    68  64  88 CALM      30.04S
BLACK MTN*       N/A     59  59 100 VRB5        N/A
PIKEVILLE APT* CLOUDY    63  63 100 N5        30.04S FOG
BIG SANDY*     CLOUDY    68  64  85 NE3       30.03F
MOREHEAD APT*  MOCLDY    73  59  60 VRB5      30.04S
$$

KYZ035-036-041-042-044-050-067-078-099-242300
...CENTRAL KENTUCKY...

CITY           SKY/WX    TMP DP  RH WIND       PRES   REMARKS
MT STERLING*   MOSUNNY   73  59  60 N6        30.04F
FLEMING/MASON* SUNNY     73  55  53 N10       30.03F
DANVILLE*      PTSUNNY   75  57  53 N9        30.04F
RICHMOND*      PTSUNNY   72  59  64 NE3       30.03F
LEXINGTON      PTSUNNY   77  56  48 NE12G17   30.03F
FRANKFORT      MOSUNNY   75  53  46 N7        30.02F
$$

KYZ091>093-OHZ055-061-077-WVZ005-015-034-035-042-242300
...SOUTHERN OHIO/WEST VIRGINIA...

CITY           SKY/WX    TMP DP  RH WIND       PRES   REMARKS
COVINGTON      MOSUNNY   75  51  43 N10G18    30.03F
COLUMBUS       MOSUNNY   76  54  46 N13       30.01F
DAYTON         MOSUNNY   75  53  46 N15       30.06F
WILMINGTON     MOSUNNY   75  54  47 N7        30.03F
HUNTINGTON     CLOUDY    72  60  66 VRB3      30.00S
CHARLESTON     PTSUNNY   72  65  78 NE3       30.01R
PINEVILLE*     CLOUDY    69  66  89 MISG      30.06S
BECKLEY        LGT RAIN  64  62  93 N10       30.04R
BLUEFIELD      LGT RAIN  68  64  87 VRB6      30.03F
$$

VAZ002-007-008-TNZ017-027-036-066-071-242300
...SOUTHWEST VIRGINIA/EAST TENNESSEE...

CITY           SKY/WX    TMP DP  RH WIND       PRES   REMARKS
WISE*          FOG       63  63 100 N10       30.07S VSB<1/4
JONESVILLE*    PTCLDY    72  66  83 CALM      30.02R
ABINGDON*      CLOUDY    72  68  89 CALM      30.00S
BRISTOL        TSTM      71  66  84 CALM      29.98R
KNOXVILLE      PTSUNNY   75  70  84 CALM      29.94R
OAK RIDGE      MOSUNNY   83  67  58 MISG      29.97R
CROSSVILLE     MOSUNNY   78  63  59 N10       30.02F
NASHVILLE      PTSUNNY   86  62  44 NW9       29.98F
$$

...KEY TO REMARKS...
VSB - VISIBILITY IN MILES
WCI - WIND CHILL INDEX
HX  - HEAT INDEX

$$



USA.gov is the U.S. government's official web portal to all federal, state and local government web resources and services.